Weather History for Seward, AK

Change the Weather History Date:

Friday, June 21, 2013

  Actual Average Record
Temperature  
Mean Temperature 52 °F -  
Max Temperature 57 °F 58 °F 73 °F (1997)
Min Temperature 50 °F 46 °F 36 °F (2000)
Degree Days  
Heating Degree Days 12    
Growing Degree Days 2 (Base 50)    
Moisture  
Dew Point 46 °F    
Average Humidity 80    
Maximum Humidity 93    
Minimum Humidity 67    
Precipitation  
Precipitation 0.00 in - - ()
Sea Level Pressure  
Sea Level Pressure 30.11 in    
Wind  
Wind Speed 7 mph (SSE)    
Max Wind Speed 14 mph    
Max Gust Speed 20 mph    
Visibility 10 miles    
Events      
Averages and records for this station are not official NWS values.
T = Trace of Precipitation, MM = Missing Value Source: NWS Daily Summary

Daily Weather History Graph

Daily Weather History Graph

Search for Another Location

Airport:

Trip Planner

Search our weather history database for the weather conditions in past years. The results will help you decide how hot, cold, wet, or windy it might be!

Date:

Astronomy

Jun. 21, 2013 Rise Set
Actual Time 4:32 AM AKDT 11:27 PM AKDT
Civil Twilight 2:41 AM AKDT 1:17 AM AKDT
Nautical Twilight Sun does not rise Sun does not rise
Astronomical Twilight Sun does not rise Sun does not rise
Moon 9:22 PM AKDT (6/21) 3:28 AM AKDT (6/21)
Length of Visible Light 22h 36m
Length of Day
18h 54m
Waxing Gibbous, 96% of the Moon is Illuminated
Jun 21
Waxing Gibbous
Jun 23
Full
Jun 29
Last Quarter
Jul 7
New
Jul 15
First Quarter

Hourly Weather History & Observations

Time (AKDT) Temp. Dew Point Humidity Pressure Visibility Wind Dir Wind Speed Gust Speed Precip Events Conditions
12:53 AM 52.0 °F 48.0 °F 86% 30.09 in 10.0 mi SSE 5.8 mph - N/A   Overcast
1:53 AM 51.1 °F 48.0 °F 89% 30.09 in 10.0 mi SSE 8.1 mph - N/A   Overcast
2:53 AM 51.1 °F 48.0 °F 89% 30.10 in 10.0 mi SSE 5.8 mph - N/A   Overcast
3:33 AM 51.8 °F 46.4 °F 82% 30.10 in 10.0 mi SSE 3.5 mph - N/A   Overcast
3:53 AM 51.1 °F 46.9 °F 86% 30.10 in 10.0 mi Calm Calm - N/A   Overcast
4:53 AM 52.0 °F 46.9 °F 83% 30.10 in 10.0 mi Calm Calm - N/A   Overcast
5:35 AM 50.0 °F 46.4 °F 87% 30.10 in 10.0 mi SE 3.5 mph - N/A   Overcast
5:53 AM 50.0 °F 48.0 °F 93% 30.10 in 10.0 mi SSE 6.9 mph - N/A   Overcast
6:27 AM 51.8 °F 48.2 °F 88% 30.10 in 10.0 mi SSE 6.9 mph - N/A   Overcast
6:53 AM 51.1 °F 48.0 °F 89% 30.11 in 10.0 mi SSE 6.9 mph - N/A   Overcast
7:38 AM 51.8 °F 46.4 °F 82% 30.11 in 10.0 mi SSE 8.1 mph - N/A   Overcast
7:53 AM 51.1 °F 48.0 °F 89% 30.11 in 10.0 mi SSE 9.2 mph - N/A   Overcast
8:13 AM 51.8 °F 46.4 °F 82% 30.11 in 10.0 mi SSE 10.4 mph - N/A   Overcast
8:40 AM 51.8 °F 46.4 °F 82% 30.11 in 10.0 mi SSE 9.2 mph - N/A   Overcast
8:53 AM 52.0 °F 46.9 °F 83% 30.11 in 10.0 mi SSE 10.4 mph - N/A   Overcast
9:53 AM 53.1 °F 46.9 °F 80% 30.12 in 10.0 mi SSE 11.5 mph - N/A   Overcast
10:53 AM 53.1 °F 46.0 °F 77% 30.12 in 10.0 mi SSE 11.5 mph - N/A   Mostly Cloudy
11:53 AM 54.0 °F 46.0 °F 75% 30.13 in 10.0 mi SSE 12.7 mph - N/A   Overcast
12:53 PM 55.0 °F 45.0 °F 69% 30.14 in 10.0 mi SSE 12.7 mph - N/A   Overcast
1:53 PM 55.9 °F 45.0 °F 67% 30.14 in 10.0 mi SSE 13.8 mph - N/A   Overcast
2:53 PM 55.0 °F 45.0 °F 69% 30.14 in 10.0 mi SSE 11.5 mph - N/A   Mostly Cloudy
3:53 PM 55.9 °F 45.0 °F 67% 30.14 in 10.0 mi SSE 11.5 mph 19.6 mph N/A   Overcast
4:53 PM 55.0 °F 45.0 °F 69% 30.13 in 10.0 mi SSE 10.4 mph - N/A   Overcast
5:53 PM 54.0 °F 45.0 °F 72% 30.13 in 10.0 mi South 9.2 mph 17.3 mph N/A   Overcast
6:53 PM 53.1 °F 45.0 °F 74% 30.13 in 10.0 mi SSE 11.5 mph - N/A   Overcast
7:53 PM 55.0 °F 45.0 °F 69% 30.12 in 10.0 mi SSE 10.4 mph - N/A   Overcast
8:53 PM 53.1 °F 45.0 °F 74% 30.11 in 10.0 mi South 6.9 mph - N/A   Overcast
9:53 PM 52.0 °F 45.0 °F 77% 30.10 in 10.0 mi SSE 11.5 mph - N/A   Overcast
10:53 PM 52.0 °F 45.0 °F 77% 30.10 in 10.0 mi SSE 8.1 mph - N/A   Overcast
11:53 PM 51.1 °F 45.0 °F 80% 30.10 in 10.0 mi SSE 6.9 mph - N/A   Overcast